Previsão horária em Funchal

Hoje, 23 Junho, Quarta-feira

Tempo Temperatura Precipitação Vento Pressão Humidade
00:00 +19°C° 0 mm 5 m/s 767 mmHg 87%
01:00 +19°C° 0 mm 5 m/s 767 mmHg 87%
02:00 +19°C° 0 mm 5 m/s 767 mmHg 88%
03:00 +19°C° 0 mm 5 m/s 766 mmHg 87%
04:00 +19°C° 0 mm 5 m/s 766 mmHg 86%
05:00 +19°C° 0 mm 5 m/s 766 mmHg 85%
06:00 +19°C° 0 mm 5 m/s 766 mmHg 82%
07:00 +20°C° 0 mm 5 m/s 767 mmHg 80%
08:00 +20°C° 0 mm 5 m/s 767 mmHg 77%
09:00 +21°C° 0 mm 5 m/s 767 mmHg 73%
10:00 +21°C° 0 mm 5 m/s 767 mmHg 69%
11:00 +22°C° 0 mm 5 m/s 767 mmHg 66%
12:00 +22°C° 0 mm 5 m/s 767 mmHg 67%
13:00 +22°C° 0 mm 5 m/s 766 mmHg 67%
14:00 +22°C° 0 mm 5 m/s 766 mmHg 68%
15:00 +21°C° 0 mm 5 m/s 766 mmHg 69%
16:00 +21°C° 0 mm 5 m/s 766 mmHg 70%
17:00 +20°C° 0 mm 5 m/s 766 mmHg 71%
18:00 +19°C° 0 mm 5 m/s 766 mmHg 75%
19:00 +19°C° 0 mm 5 m/s 766 mmHg 79%
20:00 +17°C° 0 mm 5 m/s 767 mmHg 83%
21:00 +17°C° 0 mm 5 m/s 767 mmHg 82%
22:00 +17°C° 0 mm 5 m/s 767 mmHg 82%
23:00 +17°C° 0 mm 5 m/s 767 mmHg 81%

Amanhã, 24 Junho, Quinta-feira

Tempo Temperatura Precipitação Vento Pressão Humidade
00:00 +17°C° 0 mm 5 m/s 766 mmHg 81%
01:00 +16°C° 0 mm 5 m/s 766 mmHg 81%
02:00 +16°C° 0 mm 5 m/s 765 mmHg 81%
03:00 +16°C° 0 mm 5 m/s 765 mmHg 81%
04:00 +16°C° 0 mm 5 m/s 765 mmHg 82%
05:00 +16°C° 0 mm 5 m/s 765 mmHg 82%
06:00 +17°C° 0 mm 5 m/s 765 mmHg 76%
07:00 +19°C° 0 mm 4 m/s 765 mmHg 71%
08:00 +20°C° 0 mm 4 m/s 765 mmHg 65%
09:00 +21°C° 0 mm 4 m/s 765 mmHg 62%
10:00 +22°C° 0 mm 4 m/s 766 mmHg 60%
11:00 +23°C° 0 mm 4 m/s 766 mmHg 58%
12:00 +23°C° 0 mm 4 m/s 765 mmHg 58%
13:00 +23°C° 0 mm 4 m/s 765 mmHg 59%
14:00 +25°C° 0 mm 4 m/s 765 mmHg 60%
15:00 +23°C° 0 mm 4 m/s 765 mmHg 62%
16:00 +22°C° 0 mm 4 m/s 764 mmHg 64%
17:00 +22°C° 0 mm 4 m/s 764 mmHg 66%
18:00 +21°C° 0 mm 4 m/s 765 mmHg 73%
19:00 +19°C° 0 mm 4 m/s 765 mmHg 79%
20:00 +18°C° 0 mm 3 m/s 765 mmHg 85%
21:00 +18°C° 0 mm 3 m/s 765 mmHg 86%
22:00 +18°C° 0 mm 4 m/s 765 mmHg 86%
23:00 +18°C° 0 mm 4 m/s 765 mmHg 86%

Depois de amanhã, 25 Junho, Sexta-feira

Tempo Temperatura Precipitação Vento Pressão Humidade
00:00 +18°C° 0 mm 4 m/s 765 mmHg 86%
01:00 +17°C° 0 mm 4 m/s 764 mmHg 87%
02:00 +17°C° 0 mm 4 m/s 764 mmHg 87%
03:00 +17°C° 0 mm 3 m/s 764 mmHg 87%
04:00 +17°C° 0 mm 3 m/s 764 mmHg 86%
05:00 +17°C° 0 mm 3 m/s 764 mmHg 86%
06:00 +19°C° 0 mm 3 m/s 764 mmHg 79%
07:00 +21°C° 0 mm 3 m/s 764 mmHg 71%
08:00 +22°C° 0 mm 3 m/s 764 mmHg 63%
09:00 +24°C° 0 mm 3 m/s 764 mmHg 62%
10:00 +25°C° 0 mm 3 m/s 764 mmHg 62%
11:00 +26°C° 0 mm 3 m/s 764 mmHg 61%
12:00 +26°C° 0 mm 3 m/s 764 mmHg 62%
13:00 +26°C° 0 mm 3 m/s 764 mmHg 62%
14:00 +26°C° 0 mm 3 m/s 763 mmHg 63%
15:00 +26°C° 0 mm 3 m/s 763 mmHg 66%
16:00 +25°C° 0 mm 3 m/s 763 mmHg 69%
17:00 +24°C° 0 mm 3 m/s 763 mmHg 73%
18:00 +22°C° 0 mm 3 m/s 763 mmHg 78%
19:00 +21°C° 0 mm 3 m/s 764 mmHg 83%
20:00 +20°C° 0 mm 3 m/s 764 mmHg 88%
21:00 +20°C° 0 mm 3 m/s 764 mmHg 89%
22:00 +19°C° 0 mm 3 m/s 764 mmHg 89%
23:00 +19°C° 0 mm 3 m/s 764 mmHg 89%

26 Junho, Sábado

Tempo Temperatura Precipitação Vento Pressão Humidade
00:00 +19°C° 0 mm 2 m/s 764 mmHg 88%
01:00 +18°C° 0 mm 2 m/s 764 mmHg 88%
02:00 +18°C° 0 mm 2 m/s 763 mmHg 87%
03:00 +18°C° 0 mm 2 m/s 763 mmHg 87%
04:00 +18°C° 0 mm 2 m/s 763 mmHg 86%
05:00 +18°C° 0 mm 2 m/s 763 mmHg 86%
06:00 +20°C° 0 mm 2 m/s 764 mmHg 78%
07:00 +23°C° 0 mm 2 m/s 764 mmHg 70%
08:00 +24°C° 0 mm 2 m/s 764 mmHg 62%
09:00 +25°C° 0 mm 2 m/s 764 mmHg 61%
10:00 +26°C° 0 mm 2 m/s 764 mmHg 60%
11:00 +27°C° 0 mm 2 m/s 764 mmHg 60%
12:00 +27°C° 0 mm 2 m/s 764 mmHg 61%
13:00 +27°C° 0 mm 2 m/s 764 mmHg 63%
14:00 +27°C° 0 mm 2 m/s 764 mmHg 64%
15:00 +26°C° 0 mm 3 m/s 764 mmHg 67%
16:00 +25°C° 0 mm 3 m/s 764 mmHg 70%
17:00 +25°C° 0 mm 3 m/s 764 mmHg 73%
18:00 +24°C° 0 mm 3 m/s 764 mmHg 78%
19:00 +22°C° 0 mm 3 m/s 764 mmHg 84%
20:00 +20°C° 0 mm 3 m/s 765 mmHg 90%
21:00 +20°C° 0 mm 2 m/s 765 mmHg 89%
22:00 +20°C° 0 mm 2 m/s 765 mmHg 89%
23:00 +20°C° 0 mm 2 m/s 765 mmHg 88%

27 Junho, Domingo

Tempo Temperatura Precipitação Vento Pressão Humidade
00:00 +20°C° 0 mm 2 m/s 765 mmHg 88%
01:00 +19°C° 0 mm 2 m/s 765 mmHg 88%
02:00 +19°C° 0 mm 2 m/s 765 mmHg 88%
03:00 +19°C° 0 mm 2 m/s 765 mmHg 86%
04:00 +19°C° 0 mm 2 m/s 765 mmHg 85%
05:00 +19°C° 0 mm 2 m/s 765 mmHg 83%
06:00 +20°C° 0 mm 2 m/s 765 mmHg 75%
07:00 +23°C° 0 mm 2 m/s 765 mmHg 67%
08:00 +25°C° 0 mm 2 m/s 765 mmHg 60%
09:00 +26°C° 0 mm 3 m/s 765 mmHg 59%
10:00 +27°C° 0 mm 3 m/s 766 mmHg 58%
11:00 +27°C° 0 mm 3 m/s 766 mmHg 57%
12:00 +27°C° 0 mm 3 m/s 766 mmHg 58%
13:00 +27°C° 0 mm 3 m/s 765 mmHg 60%
14:00 +27°C° 0 mm 3 m/s 765 mmHg 61%
15:00 +27°C° 0 mm 3 m/s 765 mmHg 63%
16:00 +26°C° 0 mm 4 m/s 765 mmHg 65%
17:00 +25°C° 0 mm 4 m/s 765 mmHg 67%
18:00 +23°C° 0 mm 4 m/s 766 mmHg 72%
19:00 +22°C° 0 mm 3 m/s 766 mmHg 76%
20:00 +20°C° 0 mm 3 m/s 766 mmHg 80%
21:00 +20°C° 0 mm 3 m/s 766 mmHg 77%
22:00 +20°C° 0 mm 3 m/s 767 mmHg 74%
23:00 +20°C° 0 mm 3 m/s 767 mmHg 71%

28 Junho, Segunda-feira

Tempo Temperatura Precipitação Vento Pressão Humidade
00:00 +20°C° 0 mm 3 m/s 767 mmHg 72%
01:00 +19°C° 0 mm 3 m/s 766 mmHg 72%
02:00 +19°C° 0 mm 3 m/s 766 mmHg 73%
03:00 +19°C° 0 mm 3 m/s 766 mmHg 74%
04:00 +19°C° 0 mm 3 m/s 766 mmHg 76%
05:00 +19°C° 0 mm 3 m/s 766 mmHg 77%
06:00 +21°C° 0 mm 3 m/s 766 mmHg 71%
07:00 +22°C° 0 mm 3 m/s 767 mmHg 65%
08:00 +25°C° 0 mm 3 m/s 767 mmHg 60%
09:00 +26°C° 0 mm 3 m/s 767 mmHg 59%
10:00 +26°C° 0 mm 3 m/s 767 mmHg 59%
11:00 +27°C° 0 mm 3 m/s 767 mmHg 59%
12:00 +27°C° 0 mm 3 m/s 767 mmHg 60%
13:00 +27°C° 0 mm 3 m/s 767 mmHg 61%
14:00 +27°C° 0 mm 4 m/s 767 mmHg 62%
15:00 +26°C° 0 mm 4 m/s 767 mmHg 64%
16:00 +26°C° 0 mm 4 m/s 767 mmHg 65%
17:00 +25°C° 0 mm 4 m/s 767 mmHg 67%
18:00 +22°C° 0 mm 4 m/s 767 mmHg 72%
19:00 +21°C° 0 mm 4 m/s 767 mmHg 76%
20:00 +20°C° 0 mm 4 m/s 767 mmHg 81%
21:00 +20°C° 0 mm 4 m/s 767 mmHg 80%
22:00 +20°C° 0 mm 4 m/s 767 mmHg 79%
23:00 +20°C° 0 mm 4 m/s 767 mmHg 79%
Mostrar mais

Necessitamos do seu Consentimento

A Meteoprog e os seus Fornecedores de Serviços podem armazenar e aceder a dados pessoais como cookies, identificadores do dispositivo ou outras tecnologias semelhantes existentes no seu dispositivo e processar estes dados para personalizar conteúdos e anúncios, assim como funcionalidades nas redes sociais e análise de tráfego.

  • Armazenar e/ou aceder a informações no seu dispositivo

    Os cookies, identificadores do dispositivo ou outras informações podem ser armazenados ou acedidos no seu dispositivo, para os fins acima indicados.

  • Anúncios e conteúdos personalizados, medição de anúncios e conteúdos, dados sobre o público-alvo e desenvolvimento de produtos

    Os anúncios e os conteúdos podem ser personalizados com base num perfil. Podem ser adicionados dados adicionais para uma maior personalização dos anúncios e dos conteúdos. A eficácia dos anúncios e dos conteúdos pode ser medida. Podem ser obtidas informações sobre o público que visualizou os anúncios e os conteúdos. Estes dados podem ser usados para desenvolver ou melhorar sistemas, softwares ou a experiência do utilizador.

Ao clicar em "Eu concordo”, permitirá o uso de cookies, identificadores do dispositivo e web beacons mencionados ou outras tecnologias semelhantes. As configurações do navegador do seu dispositivo podem ser alteradas.

Para certos fins, podem ser invocados interesses legítimos ao invés de consentimento. Pode ler mais informação sobre este assunto na nossa Política de Privacidade e Cookies.